Terminal Aerodrome Forecast
Issued by NWS Pittsburgh, PA

Current Version | Previous Version | Text Only | Print | Product List | Glossary Off
Versions: 1 2 3 4 5 6 7 8 9 10 11 12 13 14 15 16 17 18 19 20 21 22 23 24 25 26 27 28 29 30 31 32 33

000
FTUS41 KPBZ 201720
TAFPIT
TAF
KPIT 201720Z 2018/2124 20006KT P6SM SCT008 OVC015
      TEMPO 2018/2020 4SM -RA BKN008
     FM210600 20003KT 3SM BR OVC008
     FM211200 15004KT P6SM BKN015
     FM211800 18005KT P6SM BKN040=

USA.gov is the U.S. government's official web portal to all federal, state and local government web resources and services.